Flag for Jordan Weather past 2 weeks in Amman, Jordan

Now
81 °F

Haze.


Feels Like: 81 °F
Forecast: 68 / 87 °F
Wind: 8 mph from Southwest

Location: Amman Airport

Current Time: Jul 28, 2014 at 12:08:13 PM

Latest Report: Jul 28, 2014 at 10:00 AM


Visibility: 3 mi

Pressure: 29.98 "Hg

Humidity: 48%

Dew point: 59 °F

Location of AmmanLocation

Historic Weather in Amman — Graph

°F

Amman temperature yesterday

Maximum temperature yesterday: 86 °F (at 3:00 PM)
Minimum temperature yesterday: 66 °F (at 6:00 AM)
Average temperature yesterday: 76 °F

Past Weeks' High & Low Weather Summary

 TemperatureHumidityPressure
High88 °F (Jul 23, 2:00 PM)88% (Jul 21, 6:00 AM)30.01 "Hg (Jul 21, 6:00 AM)
Low64 °F (Jul 18, 5:00 AM)18% (Jul 24, 12:00 PM)29.80 "Hg (Jul 25, 4:00 PM)
Average75 °F52%29.88 "Hg
* Reported Jul 13 11:00 AM — Jul 28 10:00 AM, Amman, Weather by CustomWeather, © 2014

Note: Actual official high and low records may vary slightly from our data, if they occured in-between our weather recording intervals... More about our weather records

Advertising

Amman weather history for previous 24 hours

 ConditionsComfort  
Time TempWeatherWind HumidityBarometerVisibility
10:00 AM
Jul 28
81 °FHaze.8 mph48%29.98 "Hg3 mi
9:00 AM77 °FHaze.5 mph54%29.98 "Hg3 mi
8:00 AM75 °FHaze.5 mph50%30.01 "Hg2 mi
7:00 AM72 °FHaze.8 mph53%29.98 "Hg3 mi
6:00 AM68 °FHaze.No wind53%29.98 "Hg2 mi
5:00 AM70 °FHaze.5 mph53%29.98 "Hg3 mi
4:00 AM73 °FClear.7 mph41%29.98 "Hg4 mi
3:00 AM73 °FClear.9 mph44%29.98 "Hg4 mi
2:00 AM73 °FClear.9 mph44%29.98 "Hg4 mi
1:00 AM73 °FClear.12 mph44%30.01 "Hg4 mi
12:00 AM73 °FHaze.5 mph61%30.01 "Hg3 mi
11:00 PM
Jul 27
73 °FHaze.7 mph61%30.01 "Hg3 mi
10:00 PM73 °FHaze.5 mph61%30.01 "Hg3 mi
9:00 PM77 °FHaze.10 mph54%29.98 "Hg3 mi
8:00 PM79 °FHaze.13 mph45%29.98 "Hg3 mi
7:00 PM66 °FHaze.10 mph64%29.95 "Hg3 mi
6:00 PM86 °FHaze.16 mph29%29.95 "Hg3 mi
5:00 PM86 °FHaze.16 mph29%29.95 "Hg3 mi
4:00 PM86 °FHaze.14 mph29%29.95 "Hg3 mi
3:00 PM86 °FHaze.17 mph29%29.98 "Hg3 mi
2:00 PM82 °FHaze.12 mph30%29.98 "Hg3 mi
1:00 PM82 °FHaze.10 mph25%30.01 "Hg3 mi
12:00 PM82 °FHaze.15 mph25%30.01 "Hg3 mi
Weather by CustomWeather, © 2014

See weather overviewHow to use our weather pages